Weather in Nizhniye Yuri

Russia / Udmurt Republic     56°24′26″N   52°43′02″E
temp.,
°C
wind,
m/s
gust,
m/s
humid.,
%
clouds,
%
prec.,
mm/h
press.,
hPa
HPBL,
m
9 may, sun
sun901:00+10se22875 0.0 101610
04:00+9se22891 0.0 101626
07:00+12se35740 0.0 1016184
10:00+17sse46550 0.0 1016710
13:00+21sse45430 0.0 10161849
16:00+21sse45384 0.0 10162257
19:00+18ese375517 0.0 1016156
22:00+15se31160100 0.0 1017246
10 may, mon
mon1001:00+13se376527 0.0 1017112
04:00+14se3763100 0.0 1019163
07:00+15se4964100 0.0 1020250
10:00+18se4656100 0.0 1020373
13:00+22sse4640100 0.0 10211494
16:00+22s2443100 0.0 10211290
19:00+19s1157100 0.0 102113
22:00+14nnw4990100 0.7 1025348
11 may, tue
tue1101:00+13nnw3695100 0.5 1024249
04:00+10n5893100 0.5 1027345
07:00+10n578886 0.0 1028419
10:00+14n457234 0.0 1029666
13:00+18n44543 0.0 10291139
16:00+19nne44450 0.0 10291425
19:00+16ne36580 0.0 1030188
22:00+11ene34745 0.0 103158
12 may, wed
wed1201:00+10ne22755 0.0 103224
04:00+8ne22787 0.0 103226
07:00+12ene35645 0.0 1033216
10:00+17ene344480 0.0 1032817
13:00+19ene3336100 0.0 10321080
16:00+21ne23350 0.0 10311211
19:00+19nne22500 0.0 103016
22:00+14ne22595 0.0 103011
13 may, thu
thu1301:00+13ne11688 0.0 103010
04:00+12ne117395 0.0 103010
07:00+15ene1265100 0.0 1030117
10:00+20e335029 0.0 1030622
13:00+23se334112 0.0 10291300
16:00+24se234061 0.0 10281548
19:00+22sse11525 0.0 102711
22:00+17sse11600 0.0 102711